Showing default

LEMUR 2 OBA-NI-JESU, 58902

Orbit data source: Space-Track

LEMUR 2 OBA-NI-JESU, 58902 is an American payload satellite in SSO that was launched on Wed, 31 Jan 2024 UTC via an ELECTRON launch vehicle from the Rocket Lab Launch Complex (RLLC). Payload-class satellites include a variety of spacecraft equipped with specific instruments for various scientific and technological missions. These include communications satellites like Starlink; space stations such as the ISS; scientific satellites like the Hubble; Earth observation satellites from companies like Planet Labs, Umbra, and HawkEye 360; GPS; miniature CubeSats for education and research; and military/defense satellites.

Loading next visibility...
Identifier
58902, 2024-022D
Orbit
SSO
Last TLE update
20 hours ago
Origin
Manufacturer
Spire/Glasgow
Mission
Operational Commercial Early Warn
Bus & Motor
CUBESAT 3U, Unknown motor
Mass
~25 kg wet, ~25 kg dry
Launch date (UTC)
2024-01-31 (1 year ago)
Launch vehicle
ELECTRON
Launch site
Rocket Lab Launch Complex (RLLC)
Object type
Payload
Rocket body
Debris
Shape & HBR
Box + 2 Pan, 1 m
Radar Cross Section
0.146 m², Medium (>0.1 m² and < 1m²)

Expand to show TLE details & history

TLE from 20 hours ago
0 LEMUR 2 OBA-NI-JESU
1 58902U 24022D   25193.65071147  .00018459  00000-0  48852-3 0  9992
2 58902  97.4409  39.9496 0007169 210.0810 150.0024 15.38410540 80443
Epoch: 2025-07-12T15:37Z
TLE epoch observation values (Epoch: 2025-07-12T15:37:01.47Z)
Latitude
-0.00007°
Longitude
-125.09175°
Altitude
458.165 km
Speed
7.635 km/s
True Right ascension
02h 39m 47s
True Declination
0° 00' 00"
Sunlit
Object was in daylight at epoch
Visualization orbit readout
Latitude
-20.66398°
Longitude
-121.43018°
Altitude
462 km
Speed
7.633 km/s
Apparent Right ascension
06h 14m 06s
Apparent Declination
-57° 38' 53"
Sunlit
Object is in daylight
Visualization observer readout
Local Sidereal Time
00:15:13
Azimuth
140.52° SSE
Elevation
-32.687°
Doppler factor
1
Orbital elements
Apogee altitude
452.645 km
Perigee altitude
442.858 km
Semi-major axis
6,825.889 km
Eccentricity
0.00072
Inclination
97.4409°
RAAN
39.9496°
Arg. of periapsis
210.081°
True anomaly
Unknown
Mean anomaly
150.0024°
Eccentric anomaly
Unknown
Mean motion
3.84861 °/min
Orbital period
93.54 mins
BSTAR
0.00048852
Loading maneuver chart data...
Loading SW <> Apogee altitude chart data...
Loading historical data...
Loading historical data...
Loading historical data...
Loading historical data...
Loading historical data...
Loading historical data...
Loading historical data...

LEMUR 2 OBA-NI-JESU Visibility forecast

Observer location: undefined°, undefined°

Span
Click to sort rows by Start time (UTC) header in descending order
Start Az.
Max El. time (UTC)
Max El. Az.
Max El.
End time (UTC)
End Az.
6 mins2025-07-13 13:36:14.596Z151.647° SSE2025-07-13 13:39:14.596Z49.791° ENE38.824°2025-07-13 13:42:14.596Z356.793° N
5 mins2025-07-14 02:32:14.596Z23.739° NE2025-07-14 02:34:14.596Z130.429° SE42.013°2025-07-14 02:37:14.596Z184.601° SSW
|